Regional & State Weather Roundups


960 
ASUS43 KDTX 180101
RWRMI 
MICHIGAN HOURLY REGIONAL WEATHER ROUNDUP
NATIONAL WEATHER SERVICE DETROIT/PONTIAC MI
900 PM EDT THU AUG 17 2017
NOTE: "FAIR" INDICATES FEW OR NO CLOUDS BELOW 12,000 FEET WITH NO
SIGNIFICANT WEATHER AND/OR OBSTRUCTION TO VISIBILITY.
MIZ047>049-052>055-059>063-066>070-074>076-081>083-180200-
SOUTHEAST LOWER MICHIGAN
  
CITY           SKY/WX    TMP DP  RH WIND       PRES   REMARKS
ADRIAN         CLOUDY    76  68  76 NW7       29.76R                  
ALMA           PTCLDY    72  66  82 SW10      29.69S                  
ANN ARBOR      CLEAR     77  68  73 S10       29.73R                  
BAD AXE        HVY RAIN  74  71  88 S17       29.68R                  
CARO           MOCLDY    71  69  93 SW3       29.68R                  
DETROIT CITY   CLEAR     79  70  74 SW9       29.71R                  
DETROIT        PTCLDY    80  69  69 SW13      29.73R                  
FLINT          MOCLDY    73  70  90 SW6       29.70R                  
GROSSE ILE     CLEAR     79  69  73 SW7       29.72R                  
HILLSDALE      CLEAR     72  68  88 SW7       29.76S                  
HOWELL         PTCLDY    77  67  71 SW10      29.71S                  
CITY           SKY/WX    TMP DP  RH WIND       PRES   REMARKS
JACKSON          N/A     77  68  73 SW12      29.74R                  
LAMBERTVILLE   PTCLDY    78  68  69 SW5       29.75R                  
LANSING        CLOUDY    76  65  68 W13       29.71R                  
LAPEER         LGT RAIN  72  70  95 SW7       29.70F                  
MASON          CLOUDY    78  69  72 CALM      29.72S                  
MONROE         PTCLDY    79  68  69 SW7       29.73R                  
PONTIAC        MOCLDY    79  70  74 SW12      29.71R                  
PORT HOPE        N/A     73  71  93 SE5       29.65S                  
PORT HURON     CLEAR     75  72  88 S7        29.71S                  
TRI CITIES     PTCLDY    75  68  78 W14       29.67S                  
MIDLAND        FAIR      75  66  73 SW12G17   29.66S                  
TROY           PTCLDY    80  73  79 SW6       29.73R                  
SAGINAW HB     PTCLDY    73  68  83 W9        29.67S                  
$$
MIZ043>046-050>051-056>058-064>065-071>073-077>080-180200-
SOUTHWEST LOWER MICHIGAN
  
CITY           SKY/WX    TMP DP  RH WIND       PRES   REMARKS
BATTLE CREEK   CLOUDY    77  67  71 SW12      29.75R                  
BENTON HARBOR  CLOUDY    78  63  59 SW14G23   29.73S                  
BIG RAPIDS     MOCLDY    70  65  82 SW9       29.66F                  
COLDWATER      PTCLDY    75  65  70 SW8       29.76S                  
FREMONT        DRIZZLE   69  69  99 SW10G18   29.67S                  
HOLLAND        CLOUDY    77  65  66 SW17      29.70F                  
GRAND RAPIDS   MOCLDY    76  67  73 SW10      29.70S                  
IONIA          CLOUDY    75  65  70 SW10G17   29.70S                  
KALAMAZOO      MOCLDY    78  63  59 SW12      29.74R                  
LUDINGTON      CLOUDY    71  66  85 SW13G20   29.62S                  
MARSHALL       MOCLDY    77  64  65 SW9       29.74S                  
MOUNT PLEASANT CLEAR     75  67  75 SW10      29.66S                  
MUSKEGON       CLOUDY    72  66  81 SW14G21   29.68R                  
SOUTH HAVEN    MOCLDY    77  65  66 SW10      29.72S                  
$$
MIZ016>042-180200-
NORTHERN LOWER MICHIGAN
  
CITY           SKY/WX    TMP DP  RH WIND       PRES   REMARKS
ALPENA         LGT RAIN  71  71 100 SE8       29.63S FOG              
BEAVER ISLAND  PTCLDY    71  67  87 S9        29.58S                  
BELLAIRE       CLOUDY    72  67  85 S3        29.60S                  
CADILLAC       CLOUDY    71  67  84 SW12G20   29.65S                  
CHARLEVOIX     PTCLDY    73  69  87 S7        29.62S                  
FRANKFORT      MOCLDY    72  69  89 S10G22    29.59F                  
GAYLORD        CLOUDY    71  64  78 W13G21    29.64R                  
GRAYLING       CLOUDY    72  65  79 SW9       29.64S                  
HARBOR SPRINGS CLOUDY    70  68  95 S3        29.59S                  
HOUGHTON LAKE  CLOUDY    71  66  84 SW12      29.65F                  
MANISTEE       CLOUDY    72  66  81 SW9       29.61                   
OSCODA         CLOUDY    74  72  93 S7G17     29.63S                  
PELLSTON       LGT RAIN  71  69  93 S5        29.60S                  
ROGERS CITY    CLOUDY    70  69  95 SE6       29.62S FOG              
TRAVERSE CITY  CLOUDY    74  64  71 VRB7      29.58S                  
$$
MIZ007>008-015-180200-
EASTERN UPPER MICHIGAN
  
CITY           SKY/WX    TMP DP  RH WIND       PRES   REMARKS
KINROSS        FOG       66  66 100 E14       29.61F VSB 1            
MACKINAC ISLAN HVY RAIN  68  68 100 S7        29.60S                  
NEWBERRY       CLOUDY    69  68  97 S8        29.58S                  
S. S. MARIE    CLOUDY    66  64  93 SE9       29.62S                  
MUNISING         N/A     71  69  93 W5        29.52F                  
$$
MIZ004>006-011>014-085-180200-
CENTRAL UPPER MICHIGAN
  
CITY           SKY/WX    TMP DP  RH WIND       PRES   REMARKS
MANISTIQUE     CLOUDY    68  62  81 S5        29.55S HAZE             
ESCANABA       LGT RAIN  70  67  90 S8        29.52S                  
MENOMINEE      LGT RAIN  71  67  87 SW7       29.53S                  
SAWYER-GWINN   MOCLDY    66  64  94 SE3       29.55S                  
$$
MIZ001>003-009>011-084-180200-
WESTERN UPPER MICHIGAN
  
CITY           SKY/WX    TMP DP  RH WIND       PRES   REMARKS
IRON MOUNTAIN  CLOUDY    68  65  90 NW3       29.53S                  
HOUGHTON       FOG       63  61  93 NW10      29.55R VSB 1/4          
COPPER HARBOR    N/A     61  60  97 N5        29.53R                  
IRONWOOD       CLOUDY    59  58  96 NW8       29.69R FOG              
$$
ABBREVIATIONS USED IN REMARKS
   TC - TEMPERATURE IN CELSIUS
  WCI - WIND CHILL INDEX
   HX - HEAT INDEX
  VSB - VISIBILITY